Location: Alpine
(43.1636°N, 111.0180°W)
Time: 04:45:38
(UTC+00:00)

Tiros 1 despin weight - Pass Details

Date: 03 June 2022
Orbit: 591 x 639 km, 48.2° (Epoch: 30 June)

Event Time Altitude Azimuth Distance (km) Brightness Sun altitude
Rises 05:08:21 0° 289° (WNW) 2,850 ? -17.6°
Reaches altitude 10° 05:11:00 10° 275° (W) 1,936 ? -17.9°
Maximum altitude 05:14:31 23° 222° (SW) 1,266 ? -18.2°
Enters shadow 05:15:18 22° 206° (SSW) 1,306 ? -18.3°
Drops below altitude 10° 05:18:00 10° 169° (S) 1,913 - -18.6°
Sets 05:20:36 0° 155° (SSE) 2,807 - -18.8°
